This is the latest recevied weather packets stored in our database for station/object S54Z-11. If no packets are shown the sender has not sent any weather packets the latest 10 day(s).
| Time | Temp. | Humidity | Pressure | Rain* | Wind** | Luminosity | Snow |
|---|---|---|---|---|---|---|---|
| 1777433983 | 8.89° C | 100% | 1022.2 hPa | - | - | - | - |
| 1777433974 | 8.89° C | 100% | 1022.2 hPa | - | - | - | - |
| 1777433072 | 8.89° C | 100% | 1022.3 hPa | - | - | - | - |
| 1777432174 | 8.89° C | 100% | 1022.1 hPa | - | - | - | - |
| 1777431271 | 9.44° C | 100% | 1022.2 hPa | - | - | - | - |
| 1777430371 | 9.44° C | 100% | 1022 hPa | - | - | - | - |
| 1777429471 | 9.44° C | 100% | 1021.9 hPa | - | - | - | - |
| 1777428571 | 9.44° C | 100% | 1022 hPa | - | - | - | - |
| 1777427671 | 9.44° C | 100% | 1021.9 hPa | - | - | - | - |
| 1777426771 | 8.89° C | 100% | 1021.9 hPa | - | - | - | - |
| 1777425871 | 9.44° C | 100% | 1021.9 hPa | - | - | - | - |
| 1777424971 | 9.44° C | 100% | 1022 hPa | - | - | - | - |
| 1777424071 | 10° C | 100% | 1021.8 hPa | - | - | - | - |
| 1777423171 | 10° C | 100% | 1021.8 hPa | - | - | - | - |
| 1777422270 | 9.44° C | 100% | 1021.9 hPa | - | - | - | - |
| 1777421370 | 10° C | 100% | 1022 hPa | - | - | - | - |
| 1777420470 | 10° C | 100% | 1022.1 hPa | - | - | - | - |
| 1777419570 | 10° C | 100% | 1022.2 hPa | - | - | - | - |
| 1777418670 | 10° C | 100% | 1022 hPa | - | - | - | - |
| 1777417770 | 10° C | 100% | 1021.9 hPa | - | - | - | - |
| 1777416870 | 10.56° C | 100% | 1021.9 hPa | - | - | - | - |
| 1777415970 | 10° C | 100% | 1021.8 hPa | - | - | - | - |
| 1777415070 | 10° C | 100% | 1022 hPa | - | - | - | - |
| 1777414168 | 11.11° C | 92% | 1021.8 hPa | - | - | - | - |
| 1777413270 | 11.11° C | 86% | 1022 hPa | - | - | - | - |
* Rain since midnight (hover to see other rain measurements)
** Current wind speed in m/s (hover to see current wind gust speed)